This demonstration page uses our WeatherBlox Daily Observations layout. Learn more.

39.92423, -83.80882

Hourly Observations for June 4, 2016

Temp ( °F °C ) Dew Point ( °F °C ) Humidity (%) Winds ( mph kmh ) Pressure ( in mb ) Visibility ( mi km ) Precip ( " mm )
12:56 am 00:56 Mostly Clear 73 22.7 61 16.1 66 66 Calm 30.01 1016 10 16.0934 0 0
1:56 am 01:56 Mostly Cloudy with Haze 73 22.7 62 16.6 69 69 WSW 3 6 29.99 1016 3 4.82802 0 0
2:05 am 02:05 Mostly Cloudy with Haze 72 22 63 17 73 73 WSW 3 6 30 1016 2 3.21868 0 0
2:17 am 02:17 Mostly Cloudy 72 22 63 17 73 73 Calm 30 1016 9 14.48406 0 0
2:56 am 02:56 Partly Cloudy 71 21.6 61 16.1 71 71 Calm 29.99 1016 10 16.0934 0 0
3:43 am 03:43 Mostly Cloudy with Haze 72 22 61 16 69 69 W 5 7 30 1016 1.75 2.816345 0 0
3:56 am 03:56 Mostly Cloudy with Haze 71 21.6 62 16.6 73 73 WSW 3 6 29.98 1015 2.5 4.02335 0 0
4:11 am 04:11 Mostly Cloudy with Haze 70 21 61 16 73 73 W 5 7 29.97 1015 1.25 2.011675 0 0
4:20 am 04:20 Cloudy with Haze 70 21 61 16 73 73 W 5 7 29.97 1015 1 1.60934 0 0
4:34 am 04:34 Mostly Cloudy with Haze 70 21 61 16 73 73 WNW 6 9 29.97 1015 0.75 1.207005 0 0.0254
4:39 am 04:39 Mostly Cloudy with Haze 70 21 63 17 78 78 WNW 5 7 29.97 1015 1.25 2.011675 0 0.0254
4:56 am 04:56 Mostly Cloudy with Haze 69 20.5 62 16.6 78 78 WNW 5 7 29.98 1015 1 1.60934 0 0.0254
5:01 am 05:01 Mostly Cloudy with Haze 68 20 63 17 83 83 NW 6 9 29.97 1015 1.5 2.41401 0 0
5:05 am 05:05 Hazy 68 20 63 17 83 83 NNW 5 7 29.97 1015 4 6.43736 0 0
5:56 am 05:56 Partly Cloudy 67 19.4 60 15.5 78 78 NNW 5 7 29.98 1015 10 16.0934 0 0
6:56 am 06:56 Mostly Cloudy with Light Rain 67 19.4 61 16.1 81 81 Calm 30 1016 10 16.0934 0 0.0254
7:56 am 07:56 Mostly Sunny 67 19.4 63 17.2 87 87 NNE 6 9 30 1016 10 16.0934 0 0.0254
8:56 am 08:56 Mostly Sunny 69 20.5 63 17.2 81 81 NE 9 15 29.98 1015 10 16.0934 0 0.0254
9:56 am 09:56 Sunny 72 22.2 62 16.6 71 71 ENE 9 15 29.97 1015 10 16.0934 0 0
10:56 am 10:56 Mostly Sunny 74 23.3 62 16.6 66 66 E 9 15 29.95 1014 10 16.0934 0 0
11:56 am 11:56 Mostly Cloudy 76 24.4 62 16.6 62 62 ESE 8 13 29.94 1014 10 16.0934 0 0
12:56 pm 12:56 Mostly Sunny 81 27.2 63 17.2 54 54 SE 13 20 29.91 1013 10 16.0934 0 0
1:56 pm 13:56 Partly Cloudy 80 26.6 64 17.7 58 58 S 10 17 29.88 1012 10 16.0934 0 0
2:56 pm 14:56 Mostly Cloudy with Light Rain 73 22.7 68 20 85 85 W 6 9 29.88 1012 5 8.0467 0.02 0.508
3:56 pm 15:56 Mostly Cloudy 72 22.2 70 21.1 94 94 NW 7 11 29.85 1011 10 16.0934 0 0.0254
4:56 pm 16:56 Partly Cloudy 73 22.7 69 20.5 87 87 Calm 29.83 1010 10 16.0934 0 0
5:12 pm 17:12 Mostly Cloudy with Light Rain 73 23 70 21 89 89 ESE 8 13 29.83 1010 2.5 4.02335 0.01 0.254
5:23 pm 17:23 Mostly Cloudy with Light Rain 72 22 70 21 94 94 SE 6 9 29.83 1010 7 11.26538 0.02 0.508
5:56 pm 17:56 Mostly Cloudy 72 22.2 71 21.6 96 96 ESE 6 9 29.8 1009 10 16.0934 0.03 0.762
6:56 pm 18:56 Cloudy with Light Rain 72 22.2 72 22.2 100 100 SE 8 13 29.78 1009 3 4.82802 0.03 0.762
7:00 pm 19:00 Cloudy with Light Rain 72 22 72 22 100 100 SE 8 13 29.77 1008 2.5 4.02335 0.01 0.254
7:19 pm 19:19 Mostly Cloudy with Light Rain 72 22 72 22 100 100 SSE 12 19 29.77 1008 3 4.82802 0.03 0.762
7:24 pm 19:24 Mostly Cloudy with Rain 72 22 72 22 100 100 SSE 14 22 29.77 1008 1.75 2.816345 0.05 1.27
7:35 pm 19:35 Mostly Cloudy with Light Rain 70 21 70 21 100 100 SSE 9 15 29.77 1008 3 4.82802 0.07 1.778
7:56 pm 19:56 Mostly Cloudy with Nearby Thunderstorms 70 21.1 70 21.1 100 100 SSE 7 11 29.78 1008 10 16.0934 0.07 1.778
8:14 pm 20:14 Cloudy with Light Thunderstorms 70 21 70 21 100 100 SSE 3 6 29.77 1008 2.5 4.02335 0.04 1.016
8:23 pm 20:23 Mostly Cloudy with Thunderstorms 70 21 70 21 100 100 Calm 29.77 1008 2 3.21868 0.09 2.286
8:30 pm 20:30 Mostly Cloudy with Heavy Thunderstorms 70 21 70 21 100 100 Calm 29.77 1008 1.25 2.011675 0.14 3.556
8:35 pm 20:35 Cloudy with Mist and Fog 70 21 70 21 100 100 SE 5 7 29.77 1008 1.5 2.41401 0.16 4.064
8:39 pm 20:39 Mostly Cloudy with Mist and Fog 70 21 70 21 100 100 VRB 5 7 29.77 1008 3 4.82802 0.16 4.064
8:44 pm 20:44 Cloudy with Mist and Fog 70 21 70 21 100 100 W 7 11 29.77 1008 6 9.65604 0.16 4.064
8:56 pm 20:56 Cloudy 69 20.5 69 20.5 100 100 WSW 6 9 29.78 1009 10 16.0934 0.16 4.064
9:08 pm 21:08 Partly Cloudy 70 21 70 21 100 100 SSW 3 6 29.77 1008 10 16.0934 0 0
9:56 pm 21:56 Partly Cloudy 68 20 68 20 100 100 S 8 13 29.77 1008 10 16.0934 0 0
10:56 pm 22:56 Clear 67 19.4 67 19.4 100 100 SW 7 11 29.78 1008 10 16.0934 0 0
11:30 pm 23:30 Mostly Cloudy 66 19 66 19 100 100 SW 8 13 29.77 1008 10 16.0934 0 0
11:56 pm 23:56 Mostly Cloudy 67 19.4 67 19.4 100 100 WSW 8 13 29.77 1008 10 16.0934 0 0

Powered by AerisWeather